STARLINK-33751, 63512

Orbit data source: Space-Track

STARLINK-33751, 63512 is a payload satellite owned by SpaceX/Seattle (US) in LEO that was launched on Mon, 07 Apr 2025 UTC via an FALCON 9 launch vehicle from the Air Force Western Test Range (AFWTR). Payload-class satellites include a variety of spacecraft equipped with specific instruments for various scientific and technological missions. These include communications satellites like Starlink; space stations such as the ISS; scientific satellites like the Hubble; Earth observation satellites from companies like Planet Labs, Umbra, and HawkEye 360; GPS; miniature CubeSats for education and research; and military/defense satellites.

Loading next visibility...
Identifier
63512, 2025-071V
Orbit
LEO
Last TLE update
15 hours ago
Origin
Manufacturer
SpaceX/Seattle
Mission
Operational Commercial Communications
Bus & Motor
STARLINK V2MO, Unknown motor
Mass
575 kg wet, ~530 kg dry
Launch date (UTC)
2025-04-07 (1 month ago)
Launch vehicle
FALCON 9
Launch site
Air Force Western Test Range (AFWTR)
Object type
Payload
Rocket body
Debris
Shape & HBR
Box + 1 Pan, 29 m
Radar Cross Section
41.120 m², Large (>1 m²)

Expand to show TLE details & history

TLE from 15 hours ago
0 STARLINK-33751
1 63512U 25071V   25129.25002315 -.01365538  00000-0 -24165-1 0  9991
2 63512  53.1598 116.9404 0001199  69.2855  56.1768 15.52709115  6094
Epoch: 2025-05-09T06:00Z
Definitive object data (Epoch: 2025-05-09T06:00:02Z)
Latitude
40.80695°
Longitude
-60.41032°
Altitude
412.124 km
Speed
7.669 km/s
True Right ascension
17h 07m 37s
True Declination
40° 37' 42"
Sunlit
Object was in full shadow at TLE epoch
Visualization TLE readout
Latitude
3.45691°
Longitude
159.21483°
Altitude
414.471 km
Speed
7.664 km/s
Apparent Right ascension
10h 50m 30s
Apparent Declination
-40° 10' 37"
Sunlit
Object is in daylight
Visualization observer readout
Local Sidereal Time
05:07:29
Azimuth
124.879° SE
Elevation
-21.751°
Doppler factor
1
Orbital elements
Apogee altitude
409.893 km
Perigee altitude
408.265 km
Semi-major axis
6,787.216 km
Eccentricity
0.0001199
Inclination
53.1598°
RAAN
116.9404°
Arg. of periapsis
69.2855°
True anomaly
56.18822°
Mean anomaly
56.1768°
Eccentric anomaly
56.18251°
Mean motion
3.88155 °/min
BSTAR
-0.024165
Orbital period
92.75 mins
Loading maneuver chart data...
Loading SW <> Apogee altitude chart data...
Loading historical data...
Loading historical data...
Loading historical data...
Loading historical data...
Loading historical data...
Loading historical data...
Loading historical data...

STARLINK-33751 Visibility forecast

Observer location: undefined°, undefined°

Span
Click to sort rows by Start time (UTC) header in descending order
Start Az.
Max El. time (UTC)
Max El. Az.
Max El.
End time (UTC)
End Az.
6 mins2025-05-10 01:44:16.905Z222.641° SW2025-05-10 01:47:16.905Z92.983° ESE43.05°2025-05-10 01:50:16.905Z53.111° ENE
4 mins2025-05-10 08:15:16.905Z330.002° NNW2025-05-10 08:17:16.905Z69.685° E36.915°2025-05-10 08:19:16.905Z111.686° ESE
|